Estación Meteorológica de la Universidad de Murcia
Estación Meteorológica de la Universidad de Murcia
Universidad de Murcia
 

Temperatura ambienteTemperatura ambiente

 

Máxima: 23,3 ºC a las 17:06:00 del día 19/10/2017
Mínima: 13,2 ºC a las 06:34:00 del día 19/10/2017

||Temperatura máxima últimos meses|| ---- ||Temperatura mínima últimos meses||


Temperatura máxima

  • 1 - 23,3 ºC del día 19/10/2017
  • 2 - 24,7 ºC del día 18/10/2017
  • 3 - 27,1 ºC del día 17/10/2017
  • 4 - 27,4 ºC del día 16/10/2017
  • 5 - 28,1 ºC del día 15/10/2017
  • 6 - 29,4 ºC del día 14/10/2017
  • 7 - 32,3 ºC del día 13/10/2017
  • 8 - 31,3 ºC del día 12/10/2017
  • 9 - 29,9 ºC del día 11/10/2017
  • 10 - 29,5 ºC del día 10/10/2017
  • 11 - 29,3 ºC del día 09/10/2017
  • 12 - 29,2 ºC del día 08/10/2017
  • 13 - 28,8 ºC del día 07/10/2017
  • 14 - 30,8 ºC del día 06/10/2017
  • 15 - 30,6 ºC del día 05/10/2017
  • 16 - 29,1 ºC del día 04/10/2017
  • 17 - 29,9 ºC del día 03/10/2017
  • 18 - 29,2 ºC del día 02/10/2017
  • 19 - 28,3 ºC del día 01/10/2017
  • 20 - 29,1 ºC del día 30/09/2017
  • 21 - 29 ºC del día 29/09/2017
  • 22 - 28,7 ºC del día 28/09/2017
  • 23 - 29,1 ºC del día 27/09/2017
  • 24 - 30,2 ºC del día 26/09/2017
  • 25 - 35,3 ºC del día 25/09/2017
  • 26 - 33 ºC del día 24/09/2017
  • 27 - 29,1 ºC del día 23/09/2017
  • 28 - 28,4 ºC del día 22/09/2017
  • 29 - 30,5 ºC del día 21/09/2017
  • 30 - 30 ºC del día 20/09/2017
  • 31 - 30,8 ºC del día 19/09/2017
  • 32 - 32,6 ºC del día 18/09/2017
  • 33 - 29,3 ºC del día 17/09/2017
  • 34 - 26,6 ºC del día 16/09/2017
  • 35 - 30,4 ºC del día 15/09/2017
  • 36 - 35,8 ºC del día 14/09/2017
  • 37 - 30,8 ºC del día 13/09/2017
  • 38 - 31,7 ºC del día 12/09/2017
  • 39 - 36,3 ºC del día 11/09/2017
  • 40 - 30,1 ºC del día 10/09/2017
  • 41 - 35,3 ºC del día 09/09/2017
  • 42 - 33,1 ºC del día 08/09/2017
  • 43 - 32,1 ºC del día 07/09/2017
  • 44 - 37,4 ºC del día 06/09/2017
  • 45 - 43,6 ºC del día 05/09/2017
  • 46 - 48,1 ºC del día 04/09/2017
  • 47 - 38,2 ºC del día 03/09/2017
  • 48 - 38,6 ºC del día 02/09/2017
  • 49 - 47,7 ºC del día 01/09/2017
  • 50 - 49,4 ºC del día 31/08/2017
  • 51 - 26 ºC del día 30/08/2017
  • 52 - 26,4 ºC del día 29/08/2017
  • 53 - 31,3 ºC del día 28/08/2017
  • 54 - 32,6 ºC del día 27/08/2017
  • 55 - 33,7 ºC del día 26/08/2017
  • 56 - 34,3 ºC del día 25/08/2017
  • 57 - 34 ºC del día 24/08/2017
  • 58 - 34,9 ºC del día 23/08/2017
  • 59 - 35,4 ºC del día 22/08/2017
  • 60 - 32,7 ºC del día 21/08/2017

||Volver al inicio de la página||


Temperatura mínima

  • 1 - 13,2 ºC del día 19/10/2017
  • 2 - -20 ºC del día 18/10/2017
  • 3 - 16 ºC del día 17/10/2017
  • 4 - 17,1 ºC del día 16/10/2017
  • 5 - 17,8 ºC del día 15/10/2017
  • 6 - 17,5 ºC del día 14/10/2017
  • 7 - 17,3 ºC del día 13/10/2017
  • 8 - 15,7 ºC del día 12/10/2017
  • 9 - 16,6 ºC del día 11/10/2017
  • 10 - 17,5 ºC del día 10/10/2017
  • 11 - 15,7 ºC del día 09/10/2017
  • 12 - 16,4 ºC del día 08/10/2017
  • 13 - 17 ºC del día 07/10/2017
  • 14 - 16,4 ºC del día 06/10/2017
  • 15 - 17,1 ºC del día 05/10/2017
  • 16 - 18,8 ºC del día 04/10/2017
  • 17 - 17,6 ºC del día 03/10/2017
  • 18 - 18,6 ºC del día 02/10/2017
  • 19 - 18,8 ºC del día 01/10/2017
  • 20 - 16,1 ºC del día 30/09/2017
  • 21 - 17,6 ºC del día 29/09/2017
  • 22 - 18,6 ºC del día 28/09/2017
  • 23 - 20,4 ºC del día 27/09/2017
  • 24 - 19,9 ºC del día 26/09/2017
  • 25 - 16,6 ºC del día 25/09/2017
  • 26 - 16,6 ºC del día 24/09/2017
  • 27 - 17,5 ºC del día 23/09/2017
  • 28 - 18,6 ºC del día 22/09/2017
  • 29 - 16,4 ºC del día 21/09/2017
  • 30 - 17,2 ºC del día 20/09/2017
  • 31 - 17,8 ºC del día 19/09/2017
  • 32 - 17 ºC del día 18/09/2017
  • 33 - 16,7 ºC del día 17/09/2017
  • 34 - 17,5 ºC del día 16/09/2017
  • 35 - 20,7 ºC del día 15/09/2017
  • 36 - 17,8 ºC del día 14/09/2017
  • 37 - 18,5 ºC del día 13/09/2017
  • 38 - 19,6 ºC del día 12/09/2017
  • 39 - 18,3 ºC del día 11/09/2017
  • 40 - 19,3 ºC del día 10/09/2017
  • 41 - 21,1 ºC del día 09/09/2017
  • 42 - 22,9 ºC del día 08/09/2017
  • 43 - 24,2 ºC del día 07/09/2017
  • 44 - 25,8 ºC del día 06/09/2017
  • 45 - 32,4 ºC del día 05/09/2017
  • 46 - 25,8 ºC del día 04/09/2017
  • 47 - 23,3 ºC del día 03/09/2017
  • 48 - 25 ºC del día 02/09/2017
  • 49 - 35,9 ºC del día 01/09/2017
  • 50 - 20,9 ºC del día 31/08/2017
  • 51 - 19,5 ºC del día 30/08/2017
  • 52 - 20 ºC del día 29/08/2017
  • 53 - 24,1 ºC del día 28/08/2017
  • 54 - 23,2 ºC del día 27/08/2017
  • 55 - 23,5 ºC del día 26/08/2017
  • 56 - 20,6 ºC del día 25/08/2017
  • 57 - 21,1 ºC del día 24/08/2017
  • 58 - 20,2 ºC del día 23/08/2017
  • 59 - 20,4 ºC del día 22/08/2017
  • 60 - 21,8 ºC del día 21/08/2017

 

|| Humedad relativa|| Velocidad y dirección del viento|| Precipitación|| Radiación Solar Global y PAR|| Temperatura y humedad del suelo|| Presión atmosférica|| Más información|| Volver a la página principal|| Volver al inicio de la página||


Estación Meteorológica de la Universidad de Murcia
http://estacion.um.es/
Informacion actualizada a: 20/10/2017 a las 01:36:00